Content
SEND FEEDBACK

Daily
Averages
Monthly
Summary
United States of America

PUT IN BAY, OHIO


Home > North America > United States > Ohio
Elevation: 561 feet     Latitude: 41 39N     Longitude: 082 48W

WEATHER
 
SELECT A DAY
Number of Records: 122,493;   Date Range: 12/10/00 - 7/22/14
 
SHARE

PRINT THIS DATA

[ ← Previous Day ]
WEATHER ALMANAC - APRIL 17, 2013
[ Next Day → ]
[ °C ]   °F
Weather ElementAverageHighLow
Temperature46.9 °F53 °F (2:00 pm)41.7 °F (7:00 am)
Dewpoint35.3 °F43 °F (1:00 am)30 °F (8:00 pm)
Humidity63.5 %83 % (2:00 am)37 % (2:00 pm)
Barometer30.24 in30.33 in (8:00 am)30.10 in (8:00 pm)
Wind Speed9.3 mph13.8 mph (10:00 pm)
Wind Gust24.2 mph (10:00 pm)
Weather ElementAverage
Wind DirectionENE (63.8 °)

Weather ElementTotal
Precipitation---
Heating Degree Days17.7 (Base 65)
Averaged from 24 records on April 17, 2013
WEATHER CONDITIONS BREAKOUT
WIND DIRECTION BREAKOUT
WEATHER BY HOUR - APRIL 17, 2013
[ °C ]   °F
Local TimeTemperatureDewpointHumidityBarometerVisibilityWind DirectionWind SpeedGust SpeedPrecipitationEventsConditions
1:00 AM48.2 °F43.0 °F82 %30.22 inNE (50°)4.6 mph
2:00 AM46.0 °F41.0 °F78 %30.24 inNNE (30°)6.9 mph
2:00 AM46.2 °F41.4 °F83 %30.24 inNNE (30°)6.9 mph
3:00 AM44.8 °F37.6 °F76 %30.27 inNNE (30°)10.4 mph
4:00 AM43.2 °F36.9 °F78 %30.28 inNNE (20°)9.2 mph
5:00 AM43.2 °F36.5 °F77 %30.29 inNE (40°)11.5 mph
6:00 AM42.3 °F35.2 °F76 %30.30 inNE (40°)9.2 mph
7:00 AM41.7 °F32.9 °F71 %30.32 inENE (60°)9.2 mph
8:00 AM42.0 °F34.0 °F64 %30.33 inNE (50°)10.4 mph
8:00 AM42.3 °F34.0 °F72 %30.33 inNE (50°)10.4 mph
9:00 AM43.7 °F31.8 °F63 %30.32 inNE (50°)12.7 mph
10:00 AM46.6 °F34.7 °F63 %30.32 inENE (60°)11.5 mph17.3 mph
11:00 AM49.5 °F35.6 °F59 %30.31 inENE (70°)11.5 mph
12:00 PM51.8 °F37.0 °F57 %30.30 inEast (100°)6.9 mph
1:00 PM52.9 °F34.5 °F50 %30.30 inENE (70°)9.2 mph
2:00 PM53.0 °F34.0 °F37 %30.30 inENE (70°)10.4 mph
5:00 PM50.0 °F32.9 °F52 %30.19 inESE (110°)5.8 mph
6:00 PM50.0 °F31.6 °F49 %30.17 inENE (70°)10.4 mph
7:00 PM50.2 °F33.8 °F53 %30.13 inEast (90°)6.9 mph
8:00 PM47.0 °F30.0 °F40 %30.10 inESE (110°)8.1 mph
8:00 PM47.5 °F30.2 °F51 %30.10 inESE (110°)8.1 mph
9:00 PM46.8 °F33.3 °F59 %30.12 inEast (90°)8.1 mph19.6 mph
10:00 PM48.2 °F36.0 °F63 %30.11 inENE (70°)13.8 mph24.2 mph
11:00 PM48.0 °F39.0 °F71 %30.10 inENE (60°)10.4 mph17.3 mph
Hourly data recorded from CXHA, located miles away from Put In Bay, Ohio







STORIES FROM OUR PARTNERS